SL-14 DEB, 46465

Orbit data source: Space-Track

SL-14 DEB, 46465 is space debris in LEO originally from a launch on Thu, 15 Aug 1991 UTC launched from the Plesetsk Missile And Space Complex (PKMTR). Debris objects in space refer to the collection of defunct objects orbiting the Earth. Examples of debris include non-operational satellites, rocket bodies, and fragments generated from explosions, collisions, or faulty payload assembly.

Loading next visibility...
Identifier
46465, 1991-056DA
Orbit
LEO
Country
Flag of CISCIS
Related business
Manufacturer
Unknown
Mission
Spacecraft
Bus & Motor
Unknown
Mass
Unknown
Launch date (UTC)
1991-08-15 (35 years ago)
Launch vehicle
Unknown
Launch site
Plesetsk Missile And Space Complex (PKMTR)
Object type
Payload
Rocket body
Debris
Shape & HBR
Unknown shape, 0.1 m
Radar Cross Section
Medium (>0.1 m² and <1 m²)

Expand to show TLE details & history
Last TLE update: 2 days ago

TLE from 2 days ago
0 SL-14 DEB
1 46465U 91056DA  26204.80200133  .00000140  00000-0  35595-3 0  9992
2 46465  82.5618 130.1686 0026269 206.6220 153.3552 13.12043877285785
Epoch: 2026-07-23T19:14Z
TLE epoch observation values (Epoch: 2026-07-23T19:14:52.914Z)
Latitude
-0.00008°
Longitude
-100.08965°
Altitude
1,235.906 km
Speed
7.228 km/s
True Right ascension
08h 40m 40s
True Declination
0° 00' 00"
Sunlit
Object was in daylight at epoch
Visualization orbit readout
Latitude
Unknown
Longitude
Unknown
Altitude
Unknown
Speed
Unknown
Apparent Right ascension
Unknown
Apparent Declination
Unknown
Sunlit
N/A
Visualization observer readout
Local Sidereal Time
16:15:06
Azimuth
Unknown
Elevation
Unknown
Doppler factor
Unknown
Orbital elements
Apogee altitude
1,232.454 km
Perigee altitude
1,192.574 km
Semi-major axis
7,590.651 km
Eccentricity
0.00263
Inclination
82.5618°
RAAN
130.1686°
Arg. of periapsis
206.622°
True anomaly
153.4898°
Mean anomaly
153.3552°
Eccentric anomaly
153.42254°
Mean motion
3.28189 °/min
Orbital period
109.69 mins
BSTAR
0.00035595
Loading maneuver chart data...
Computing Atmospheric mass density...
Loading historical data...
Loading historical data...
Loading historical data...
Loading historical data...
Loading historical data...
Loading historical data...
Loading historical data...

Documentation

Showing up to 5 results
|